Richmond Hanover County, VA

4:15 PM EDT on April 21, 2018 (GMT -0400)
Hanover County Municipal

Weather History for KOFP - December, 2012

Change the Weather History Date:

Sunday, December 9, 2012

  Actual Average Record
Temperature  
Mean Temperature 48 °F -  
Max Temperature 52 °F 51 °F 80 °F (1999)
Min Temperature 44 °F 31 °F 10 °F (1976)
Degree Days  
Heating Degree Days 17    
Moisture  
Dew Point 50 °F    
Average Humidity 100    
Maximum Humidity 100    
Minimum Humidity 100    
Precipitation  
Precipitation 0.12 in - - ()
Sea Level Pressure  
Sea Level Pressure 30.08 in    
Wind  
Wind Speed 0 mph (NNE)    
Max Wind Speed 6 mph    
Max Gust Speed -    
Visibility 1 miles    
Events Fog , Rain    
Averages and records for this station are not official NWS values.
T = Trace of Precipitation, MM = Missing Value Source: NWS Daily Summary

Daily Weather History Graph

Daily Weather History Graph

Search for Another Location

Airport or City:

Astronomy

Dec. 09, 2012 Rise Set
Actual Time 7:13 AM EST 4:51 PM EST
Civil Twilight 6:44 AM EST 5:20 PM EST
Nautical Twilight 6:11 AM EST 5:52 PM EST
Astronomical Twilight 5:39 AM EST 6:24 PM EST
Moon 2:47 AM EST (12/9) 1:53 PM EST (12/9)
Length of Visible Light 10h 35m
Length of Day
9h 37m
Waning Crescent, 19% of the Moon is Illuminated
Dec 9
Waning Crescent
Dec 13
New
Dec 20
First Quarter
Dec 28
Full
Jan 4
Last Quarter

Hourly Weather History & Observations

Time (EST) Temp. Windchill Dew Point Humidity Pressure Visibility Wind Dir Wind Speed Gust Speed Precip Events Conditions
12:47 AM 48.2 °F - 48.2 °F 100% 30.03 in 1.8 mi Calm Calm - N/A   Clear
12:54 AM 48.9 °F - 48.9 °F 100% 30.03 in 0.8 mi Calm Calm - N/A   Clear
1:01 AM 48.2 °F - 48.2 °F 100% 30.03 in 0.2 mi Calm Calm - N/A Fog Fog
1:13 AM 48.2 °F - 48.2 °F 100% 30.04 in 0.2 mi Calm Calm - N/A Fog Fog
1:54 AM 46.9 °F - 46.9 °F 100% 30.05 in 0.2 mi Calm Calm - N/A Fog Fog
2:11 AM 46.4 °F - 46.4 °F 100% 30.05 in 0.2 mi Calm Calm - N/A Fog Fog
2:54 AM 46.0 °F - 46.0 °F 100% 30.06 in 0.2 mi Calm Calm - N/A Fog Fog
3:12 AM 46.4 °F - 46.4 °F 100% 30.06 in 1.0 mi Calm Calm - N/A   Mist
3:24 AM 44.6 °F 43.1 °F 44.6 °F 100% 30.07 in 1.2 mi North 3.5 mph - N/A   Mostly Cloudy
3:43 AM 48.2 °F - 48.2 °F 100% 30.07 in 1.8 mi Calm Calm - N/A   Mostly Cloudy
3:50 AM 48.2 °F - 48.2 °F 100% 30.07 in 2.0 mi Calm Calm - N/A   Mostly Cloudy
3:54 AM 46.9 °F - 46.9 °F 100% 30.07 in 2.0 mi Calm Calm - N/A   Mostly Cloudy
3:57 AM 46.4 °F - 46.4 °F 100% 30.07 in 1.2 mi Calm Calm - N/A   Mostly Cloudy
4:06 AM 46.4 °F - 46.4 °F 100% 30.07 in 0.8 mi Calm Calm - N/A   Overcast
4:22 AM 46.4 °F - 46.4 °F 100% 30.07 in 1.0 mi Calm Calm - N/A   Overcast
4:44 AM 46.4 °F - 46.4 °F 100% 30.07 in 0.5 mi Calm Calm - N/A Fog Fog
4:54 AM 46.9 °F - 46.9 °F 100% 30.07 in 0.5 mi South 4.6 mph - N/A Fog Fog
5:54 AM 46.9 °F - 46.9 °F 100% 30.09 in 0.2 mi Calm Calm - N/A Fog Fog
6:54 AM 46.0 °F - 46.0 °F 100% 30.10 in 0.2 mi Calm Calm - N/A Fog Fog
7:54 AM 48.0 °F - 48.0 °F 100% 30.13 in 0.2 mi Calm Calm - N/A Fog Fog
8:15 AM 48.2 °F - 48.2 °F 100% 30.13 in 0.5 mi Calm Calm - N/A Fog Fog
8:31 AM 50.0 °F - 50.0 °F 100% 30.13 in 1.0 mi Calm Calm - N/A   Overcast
8:44 AM 51.8 °F - 51.8 °F 100% 30.13 in 2.0 mi Calm Calm - N/A   Overcast
8:54 AM 51.1 °F - 51.1 °F 100% 30.14 in 2.5 mi Calm Calm - N/A   Overcast
9:08 AM 51.8 °F - 51.8 °F 100% 30.15 in 1.8 mi Calm Calm - N/A   Overcast
9:34 AM 51.8 °F - 51.8 °F 100% 30.16 in 1.0 mi North 5.8 mph - N/A   Overcast
9:45 AM 51.8 °F - 51.8 °F 100% 30.16 in 0.8 mi Calm Calm - N/A   Overcast
9:54 AM 51.1 °F - 51.1 °F 100% 30.16 in 0.8 mi Variable 3.5 mph - N/A   Overcast
10:54 AM 51.1 °F - 51.1 °F 100% 30.15 in 0.5 mi Variable 3.5 mph - N/A Fog Fog
11:54 AM 51.1 °F - 51.1 °F 100% 30.13 in 0.2 mi NE 3.5 mph - N/A Fog Fog
12:54 PM 52.0 °F - 52.0 °F 100% 30.12 in 0.5 mi Calm Calm - N/A Fog Fog
1:54 PM 52.0 °F - 52.0 °F 100% 30.11 in 0.8 mi Calm Calm - N/A   Overcast
2:07 PM 51.8 °F - 51.8 °F 100% 30.11 in 1.0 mi Calm Calm - N/A   Overcast
2:54 PM 52.0 °F - 52.0 °F 100% 30.11 in 0.8 mi Calm Calm - N/A   Overcast
3:05 PM 51.8 °F - 51.8 °F 100% 30.10 in 1.0 mi NE 3.5 mph - N/A   Overcast
3:20 PM 51.8 °F - 51.8 °F 100% 30.10 in 0.8 mi ENE 3.5 mph - N/A   Overcast
3:52 PM 51.8 °F - 51.8 °F 100% 30.11 in 1.2 mi Calm Calm - N/A   Overcast
3:54 PM 52.0 °F - 52.0 °F 100% 30.11 in 1.2 mi Calm Calm - N/A   Overcast
4:14 PM 51.8 °F - 51.8 °F 100% 30.11 in 0.8 mi Calm Calm - N/A   Overcast
4:45 PM 51.8 °F - 51.8 °F 100% 30.11 in 1.2 mi Calm Calm - N/A   Overcast
4:54 PM 51.1 °F - 51.1 °F 100% 30.11 in 1.2 mi Calm Calm - N/A   Overcast
5:54 PM 51.1 °F - 51.1 °F 100% 30.10 in 1.8 mi Calm Calm - 0.01 in   Overcast
6:04 PM 51.8 °F - 51.8 °F 100% 30.09 in 2.0 mi Calm Calm - N/A   Overcast
6:24 PM 51.8 °F - 51.8 °F 100% 30.09 in 1.8 mi Calm Calm - N/A   Overcast
6:46 PM 51.8 °F - 51.8 °F 100% 30.09 in 1.2 mi Calm Calm - N/A   Overcast
6:54 PM 51.1 °F - 51.1 °F 100% 30.10 in 1.2 mi Calm Calm - N/A   Overcast
7:14 PM 51.8 °F - 51.8 °F 100% 30.09 in 0.8 mi Calm Calm - N/A   Mist
7:54 PM 51.1 °F - 51.1 °F 100% 30.08 in 0.5 mi Calm Calm - 0.02 in Fog Fog
8:54 PM 51.1 °F - 51.1 °F 100% 30.06 in 0.5 mi Calm Calm - 0.02 in Fog Fog
9:41 PM 50.0 °F - 50.0 °F 100% 30.03 in 1.5 mi Calm Calm - 0.07 in Rain Light Rain
9:45 PM 50.0 °F - 50.0 °F 100% 30.04 in 3.0 mi WNW 3.5 mph - 0.07 in Rain Light Rain
9:54 PM 51.1 °F - 51.1 °F 100% 30.04 in 5.0 mi Calm Calm - 0.07 in   Overcast
10:54 PM 51.1 °F - 51.1 °F 100% 30.03 in 3.0 mi Calm Calm - N/A   Overcast
11:20 PM 50.0 °F - 50.0 °F 100% 30.02 in 1.8 mi Calm Calm - N/A   Overcast
11:41 PM 50.0 °F - 50.0 °F 100% 30.01 in 1.0 mi Calm Calm - N/A   Overcast
11:54 PM 51.1 °F - 51.1 °F 100% 30.01 in 1.2 mi Calm Calm - N/A   Overcast
11:59 PM 51.8 °F - 51.8 °F 100% 30.00 in 2.0 mi Calm Calm - N/A   Overcast